{"data":{"norad_id":56358,"epoch":"2026-09-20T22:00:03.000096Z","epoch_age_seconds":72579,"freshness":"FRESH","line1":"1 56358U 23058AT  26263.91670139  .00080503  00000+0  38933-2 0  9993","line2":"2 56358  97.2819 257.8387 0002525  65.5884 183.3031 15.18259433  5684","mean_motion":15.18259433,"eccentricity":0.0002525,"inclination_deg":97.2819,"raan_deg":257.8387,"arg_perigee_deg":65.5884,"mean_anomaly_deg":183.3031,"bstar":0.0038933,"rev_number":568,"period_min":94.845450566682,"perigee_km":509.36137496815,"apogee_km":512.84044011145,"semimajor_km":6889.2379075398,"source":"CELESTRAK","updated_at":"2026-09-21T09:00:33.428975Z"}}